STARLINK-1094, 44941

Orbit data source: Space-Track

STARLINK-1094, 44941 is a payload satellite owned by SpaceX/Seattle (US) in LEO that was launched on Tue, 07 Jan 2020 UTC via an FALCON 9 launch vehicle from the Air Force Eastern Test Range (AFETR). Payload-class satellites include a variety of spacecraft equipped with specific instruments for various scientific and technological missions. These include communications satellites like Starlink; space stations such as the ISS; scientific satellites like the Hubble; Earth observation satellites from companies like Planet Labs, Umbra, and HawkEye 360; GPS; miniature CubeSats for education and research; and military/defense satellites.

Loading next visibility...
Identifier
44941, 2020-001AD
Orbit
LEO
Last TLE update
11 hours ago
Origin
Manufacturer
SpaceX/Seattle
Mission
Operational Commercial Communications
Bus & Motor
STARLINK, Unknown motor
Mass
260 kg wet, ~248 kg dry
Launch date (UTC)
2020-01-07 (5 years ago)
Launch vehicle
FALCON 9
Launch site
Air Force Eastern Test Range (AFETR)
Object type
Payload
Rocket body
Debris
Shape & HBR
Box + 1 Pan, 8.86 m
Radar Cross Section
13.562 m², Large (>1 m²)

Expand to show TLE details & history

TLE from 11 hours ago
0 STARLINK-1094
1 44941U 20001AD  25181.81707593  .00001191  00000-0  98833-4 0  9999
2 44941  53.0560  17.3164 0001324  89.3700 270.7441 15.06396298302168
Epoch: 2025-06-30T19:36Z
TLE epoch observation values (Epoch: 2025-06-30T19:36:35.36Z)
Latitude
0.00001°
Longitude
164.04763°
Altitude
548.09 km
Speed
7.589 km/s
True Right ascension
01h 09m 15s
True Declination
0° 00' 00"
Sunlit
Object was in daylight at epoch
Visualization orbit readout
Latitude
-13.78726°
Longitude
151.40127°
Altitude
551.179 km
Speed
7.586 km/s
Apparent Right ascension
02h 42m 50s
Apparent Declination
-34° 27' 14"
Sunlit
Object is in daylight
Visualization observer readout
Local Sidereal Time
18:18:37
Azimuth
100.412° ESE
Elevation
-47.33°
Doppler factor
1
Orbital elements
Apogee altitude
548.41 km
Perigee altitude
546.576 km
Semi-major axis
6,925.63 km
Eccentricity
0.00013
Inclination
53.056°
RAAN
17.3164°
Arg. of periapsis
89.37°
True anomaly
Unknown
Mean anomaly
270.7441°
Eccentric anomaly
Unknown
Mean motion
3.76577 °/min
Orbital period
95.6 mins
BSTAR
0.000098833
Loading maneuver chart data...
Loading SW <> Apogee altitude chart data...

STARLINK-1094 Visibility forecast

Observer location: undefined°, undefined°

Span
Click to sort rows by Start time (UTC) header in descending order
Start Az.
Max El. time (UTC)
Max El. Az.
Max El.
End time (UTC)
End Az.
6 mins2025-07-01 14:51:47.206Z190.164° SSW2025-07-01 14:54:47.206Z141.663° SSE25.567°2025-07-01 14:57:47.206Z78.319° E
6 mins2025-07-01 16:31:47.206Z262.793° W2025-07-01 16:34:47.206Z336.454° NNW33.198°2025-07-01 16:37:47.206Z35.371° NE
6 mins2025-07-01 21:33:47.206Z332.481° NNW2025-07-01 21:36:47.206Z43.057° NE28.995°2025-07-01 21:39:47.206Z94.523° ESE
5 mins2025-07-01 23:13:47.206Z281.708° WNW2025-07-01 23:15:47.206Z232.7° WSW31.2°2025-07-01 23:18:47.206Z165.592° S
|